Weather History for Niagara Falls, NY

Change the Weather History Date:

Saturday, March 30, 2013

  Actual Average Record
Temperature  
Mean Temperature 36 °F -  
Max Temperature 50 °F 44 °F 86 °F (1998)
Min Temperature 24 °F 30 °F 19 °F (2008)
Degree Days  
Heating Degree Days 29    
Moisture  
Dew Point 25 °F    
Average Humidity 68    
Maximum Humidity 93    
Minimum Humidity 37    
Precipitation  
Precipitation 0.00 in - - ()
Sea Level Pressure  
Sea Level Pressure 30.18 in    
Wind  
Wind Speed 2 mph (SSW)    
Max Wind Speed 15 mph    
Max Gust Speed 24 mph    
Visibility 7 miles    
Events Fog    
Averages and records for this station are not official NWS values.
T = Trace of Precipitation, MM = Missing Value Source: NWS Daily Summary

Daily Weather History Graph

Daily Weather History Graph

Search for Another Location

Airport:

Trip Planner

Search our weather history database for the weather conditions in past years. The results will help you decide how hot, cold, wet, or windy it might be!

Date:

Astronomy

Mar. 30, 2013 Rise Set
Actual Time 7:00 AM EDT 7:40 PM EDT
Civil Twilight 6:32 AM EDT 8:08 PM EDT
Nautical Twilight 5:58 AM EDT 8:42 PM EDT
Astronomical Twilight 5:23 AM EDT 9:17 PM EDT
Moon 11:51 PM EDT (3/30) 8:48 AM EDT (3/30)
Length of Visible Light 13h 36m
Length of Day
12h 39m
Waning Gibbous, 86% of the Moon is Illuminated
Mar 30
Waning Gibbous
Apr 3
Last Quarter
Apr 10
New
Apr 18
First Quarter
Apr 25
Full

Hourly Weather History & Observations

Time (EDT) Temp. Windchill Dew Point Humidity Pressure Visibility Wind Dir Wind Speed Gust Speed Precip Events Conditions
12:53 AM 30.0 °F - 27.0 °F 88% 30.21 in 7.0 mi Calm Calm - N/A   Clear
1:53 AM 30.0 °F - 27.0 °F 88% 30.22 in 6.0 mi Calm Calm - N/A   Clear
2:53 AM 28.9 °F - 26.1 °F 89% 30.22 in 4.0 mi Calm Calm - N/A   Clear
3:53 AM 28.0 °F - 24.1 °F 85% 30.22 in 5.0 mi Calm Calm - N/A   Clear
4:36 AM 26.6 °F - 24.8 °F 93% 30.18 in 1.5 mi Calm Calm - N/A   Clear
4:38 AM 26.6 °F - 24.8 °F 93% 30.18 in 1.0 mi Calm Calm - N/A   Clear
4:42 AM 26.6 °F - 24.8 °F 93% 30.18 in 0.5 mi Calm Calm - N/A Fog Light Freezing Fog
4:48 AM 26.6 °F - 24.8 °F 93% 30.18 in 1.0 mi Calm Calm - N/A   Clear
4:50 AM 26.6 °F - 24.8 °F 93% 30.18 in 2.0 mi Calm Calm - N/A   Clear
4:53 AM 27.0 °F - 24.1 °F 89% 30.22 in 4.0 mi Calm Calm - N/A   Clear
5:53 AM 25.0 °F - 23.0 °F 92% 30.22 in 6.0 mi Calm Calm - N/A   Clear
6:53 AM 26.1 °F - 23.0 °F 88% 30.24 in 4.0 mi Calm Calm - N/A   Clear
7:09 AM 24.8 °F - 21.2 °F 86% 30.19 in 4.0 mi Calm Calm - N/A   Partly Cloudy
7:53 AM 28.0 °F - 25.0 °F 88% 30.25 in 5.0 mi Calm Calm - N/A   Partly Cloudy
8:53 AM 34.0 °F - 30.0 °F 85% 30.25 in 8.0 mi Calm Calm - N/A   Partly Cloudy
9:53 AM 39.0 °F 36.8 °F 30.9 °F 73% 30.25 in 10.0 mi SW 3.5 mph - N/A   Clear
10:53 AM 43.0 °F 40.3 °F 26.1 °F 51% 30.24 in 10.0 mi SW 4.6 mph - N/A   Clear
11:53 AM 45.0 °F 42.6 °F 25.0 °F 46% 30.22 in 10.0 mi SW 4.6 mph - N/A   Partly Cloudy
12:53 PM 46.9 °F - 26.1 °F 44% 30.20 in 10.0 mi Variable 6.9 mph 16.1 mph N/A   Partly Cloudy
1:53 PM 48.0 °F - 28.9 °F 48% 30.18 in 10.0 mi SSW 11.5 mph - N/A   Partly Cloudy
2:53 PM 48.9 °F - 27.0 °F 43% 30.17 in 10.0 mi SSW 12.7 mph 24.2 mph N/A   Partly Cloudy
3:53 PM 48.9 °F - 26.1 °F 41% 30.15 in 10.0 mi WSW 15.0 mph - N/A   Scattered Clouds
4:53 PM 48.9 °F - 24.1 °F 38% 30.14 in 10.0 mi SW 10.4 mph 19.6 mph N/A   Scattered Clouds
5:53 PM 48.0 °F - 23.0 °F 37% 30.14 in 10.0 mi SW 12.7 mph - N/A   Scattered Clouds
6:53 PM 46.0 °F 42.5 °F 21.9 °F 39% 30.11 in 10.0 mi WSW 6.9 mph - N/A   Scattered Clouds
7:53 PM 44.1 °F 41.5 °F 19.9 °F 38% 30.10 in 10.0 mi South 4.6 mph - N/A   Scattered Clouds
8:53 PM 39.9 °F 35.8 °F 21.0 °F 47% 30.09 in 10.0 mi South 5.8 mph - N/A   Partly Cloudy
9:53 PM 39.0 °F 34.8 °F 21.9 °F 50% 30.08 in 10.0 mi SSE 5.8 mph - N/A   Partly Cloudy
10:53 PM 37.9 °F 33.5 °F 21.0 °F 51% 30.05 in 10.0 mi SSE 5.8 mph - N/A   Partly Cloudy
11:53 PM 37.0 °F 32.4 °F 21.0 °F 52% 30.04 in 10.0 mi SSE 5.8 mph - N/A   Clear